User: anonymous   Login
Location: Clyde
(45.1830°S, 169.3170°E)
Time: 17:14:45
(UTC+12:00)
Language:

SL-16 R/B - Orbit

View from above orbital plane
View from above orbital plane
View from above satellite
View from above satellite

Ground track
Ground track

The orbit data is extracted from the following two-line orbital elements,

1 28353U 04021B   21210.33178435  .00000170  00000-0  11414-3 0  9990
2 28353  71.0013 165.9784 0003070  65.6198 294.5244 14.14252208884661
Epoch (UTC): 29 July 2021 07:57:46
Eccentricity: 0.0003070
inclination: 71.0013°
perigee height: 842 km
apogee height: 847 km
right ascension of ascending node: 165.9784°
argument of perigee: 65.6198°
revolutions per day: 14.14252208
mean anomaly at epoch: 294.5244°
orbit number at epoch: 88466

The dashed part of the orbit path shows where the satellite is in the earth's shadow,  

DLR